Regional Weather Roundup
Issued by NWS

Home | Current Version | Previous Version | Graphics & Text | Print | Product List | Glossary On
Versions: 1 2 3 4 5 6 7 8 9 10 11 12 13 14 15 16 17 18 19 20 21 22 23 24 25 26 27 28 29 30 31 32 33 34 35 36 37 38 39 40 41 42 43 44 45 46 47 48 49 50
000
ASUS43 KFSD 212310
RWRSD

WEATHER ROUNDUP FOR SOUTH DAKOTA
NATIONAL WEATHER SERVICE SIOUX FALLS SD
600 PM CDT THU AUG 21 2014

NOTE: "FAIR" INDICATES FEW OR NO CLOUDS BELOW 12,000 FEET WITH NO
SIGNIFICANT WEATHER AND/OR OBSTRUCTIONS TO VISIBILITY.


SDZ001>005-009-010-012>017-220000-
NORTHWEST AND NORTH CENTRAL SOUTH DAKOTA

CITY           SKY/WX    TMP DP  RH WIND       PRES   REMARKS
BUFFALO          N/A     75  58  55 N14       29.90S
FAITH            N/A     84  56  38 N3        29.93R
MOBRIDGE       SUNNY     82  63  52 N10       29.87R
$$

SDZ012>016-024>037-041>051-057-063-072>074-220000-
SOUTHWEST AND SOUTH CENTRAL SOUTH DAKOTA

CITY           SKY/WX    TMP DP  RH WIND       PRES   REMARKS
RAPID CTY ARPT PTSUNNY   75  63  66 N7        29.95S
PIERRE         SUNNY     87  60  40 CALM      29.87R
CUSTER         PTSUNNY   73  52  47 E13       30.08S
ELLSWORTH AFB  LGT RAIN  79  57  47 N10       29.96S
PHILIP         SUNNY     90  50  25 CALM      29.90R
PINE RIDGE     SUNNY     84  57  39 SE12      29.95F
WINNER         FAIR      89  58  34 N7        29.90S
$$

SDZ004>011-016>023-039-040-220000-
NORTHEAST SOUTH DAKOTA

CITY           SKY/WX    TMP DP  RH WIND       PRES   REMARKS
ABERDEEN       SUNNY     82  66  58 NW14      29.85R
WATERTOWN      SUNNY     81  67  62 N13       29.85R
SISSETON         N/A     83  71  67 NE8       29.81R
$$

SDZ017-020-022-023-036>040-048>070-220000-
SOUTHEAST SOUTH DAKOTA

CITY           SKY/WX    TMP DP  RH WIND       PRES   REMARKS
SIOUX FALLS    MOSUNNY   87  70  56 NW10      29.83S
HURON          SUNNY     85  64  49 N10       29.84R
CHAMBERLAIN    SUNNY     86  62  44 N7        29.87S
MITCHELL       SUNNY     87  70  56 N6        29.84R
YANKTON        SUNNY     88  72  58 W10       29.82R
$$

ABBREVIATIONS USED IN REMARKS
   TC - TEMPERATURE IN CELSIUS
  WCI - WIND CHILL INDEX
   HX - HEAT INDEX
  VSB - VISIBILITY




USA.gov is the U.S. government's official web portal to all federal, state and local government web resources and services.